Time,TemperatureF,DewpointF,PressureIn,WindDirection,WindDirectionDegrees,WindSpeedMPH,WindSpeedGustMPH,Humidity,HourlyPrecipIn,Conditions,Clouds,dailyrainin,SolarRadiationWatts/m^2,SoftwareType,DateUTC
2013-08-28 00:01:00,65.7,60.1,25.92,SE,136,0.0,0.0,82,0.00,,,0.00,0,Wunderground v.1.15,2013-08-28 06:01:00,
2013-08-28 00:06:00,65.5,60.2,25.92,SE,136,0.0,0.0,83,0.00,,,0.00,0,Wunderground v.1.15,2013-08-28 06:06:00,
2013-08-28 00:16:00,65.2,60.9,25.92,SE,136,0.0,1.0,86,0.00,,,0.00,0,Wunderground v.1.15,2013-08-28 06:16:00,
2013-08-28 00:25:00,65.1,60.8,25.91,South,178,0.0,1.0,86,0.00,,,0.00,0,Wunderground v.1.15,2013-08-28 06:25:00,
2013-08-28 00:35:00,64.9,60.3,25.91,South,177,0.0,0.0,85,0.00,,,0.00,0,Wunderground v.1.15,2013-08-28 06:35:00,
2013-08-28 00:40:00,64.7,60.1,25.91,South,178,0.0,0.0,85,0.00,,,0.00,0,Wunderground v.1.15,2013-08-28 06:40:00,
2013-08-28 00:46:00,64.7,59.8,25.91,South,178,0.0,0.0,84,0.00,,,0.00,0,Wunderground v.1.15,2013-08-28 06:46:00,
2013-08-28 00:55:00,64.9,60.6,25.91,South,177,0.0,0.0,86,0.00,,,0.00,0,Wunderground v.1.15,2013-08-28 06:55:00,
2013-08-28 01:01:00,64.7,60.4,25.91,NE,48,0.0,1.0,86,0.00,,,0.00,0,Wunderground v.1.15,2013-08-28 07:01:00,
2013-08-28 01:10:00,64.6,60.3,25.91,NE,48,0.0,1.0,86,0.00,,,0.00,0,Wunderground v.1.15,2013-08-28 07:10:00,
2013-08-28 01:16:00,64.6,60.0,25.91,NE,48,0.0,0.0,85,0.00,,,0.00,0,Wunderground v.1.15,2013-08-28 07:16:00,
2013-08-28 01:21:00,64.6,60.3,25.91,NE,48,0.0,0.0,86,0.00,,,0.00,0,Wunderground v.1.15,2013-08-28 07:21:00,
2013-08-28 01:31:00,64.6,60.6,25.92,NE,48,0.0,0.0,87,0.00,,,0.00,0,Wunderground v.1.15,2013-08-28 07:31:00,
2013-08-28 01:40:00,64.4,61.1,25.92,NE,48,0.0,0.0,89,0.00,,,0.00,0,Wunderground v.1.15,2013-08-28 07:40:00,
2013-08-28 01:46:00,64.4,61.4,25.92,NE,48,0.0,0.0,90,0.00,,,0.00,0,Wunderground v.1.15,2013-08-28 07:46:00,
2013-08-28 01:55:00,64.2,61.5,25.92,NE,48,0.0,0.0,91,0.00,,,0.00,0,Wunderground v.1.15,2013-08-28 07:55:00,
2013-08-28 02:01:00,64.2,61.8,25.92,NE,48,0.0,0.0,92,0.00,,,0.00,0,Wunderground v.1.15,2013-08-28 08:01:00,
2013-08-28 02:10:00,64.1,62.3,25.92,NE,48,0.0,0.0,94,0.00,,,0.00,0,Wunderground v.1.15,2013-08-28 08:10:00,
2013-08-28 02:20:00,63.9,61.8,25.92,NE,48,0.0,0.0,93,0.00,,,0.00,0,Wunderground v.1.15,2013-08-28 08:20:00,
2013-08-28 02:25:00,63.9,61.8,25.91,NE,48,0.0,0.0,93,0.00,,,0.00,0,Wunderground v.1.15,2013-08-28 08:25:00,
2013-08-28 02:31:00,63.9,61.8,25.92,NE,48,0.0,0.0,93,0.00,,,0.00,0,Wunderground v.1.15,2013-08-28 08:31:00,
2013-08-28 02:40:00,63.8,61.7,25.91,NE,48,0.0,0.0,93,0.00,,,0.00,0,Wunderground v.1.15,2013-08-28 08:40:00,
2013-08-28 02:46:00,63.8,62.0,25.92,NE,48,0.0,0.0,94,0.00,,,0.00,0,Wunderground v.1.15,2013-08-28 08:46:00,
2013-08-28 02:56:00,63.8,62.0,25.92,NE,48,0.0,0.0,94,0.00,,,0.00,0,Wunderground v.1.15,2013-08-28 08:56:00,
2013-08-28 03:05:00,63.8,62.3,25.93,NE,48,0.0,0.0,95,0.00,,,0.00,0,Wunderground v.1.15,2013-08-28 09:05:00,
2013-08-28 03:11:00,63.8,62.3,25.93,NE,48,0.0,0.0,95,0.00,,,0.00,0,Wunderground v.1.15,2013-08-28 09:11:00,
2013-08-28 03:20:00,63.6,62.1,25.93,NE,48,0.0,0.0,95,0.00,,,0.00,0,Wunderground v.1.15,2013-08-28 09:20:00,
2013-08-28 03:26:00,63.6,62.1,25.93,NE,48,0.0,1.0,95,0.00,,,0.00,0,Wunderground v.1.15,2013-08-28 09:26:00,
2013-08-28 03:36:00,63.4,62.2,25.92,NE,48,0.0,0.0,96,0.00,,,0.00,0,Wunderground v.1.15,2013-08-28 09:36:00,
2013-08-28 03:46:00,63.4,62.2,25.92,NE,48,0.0,0.0,96,0.00,,,0.00,0,Wunderground v.1.15,2013-08-28 09:46:00,
2013-08-28 03:51:00,63.3,62.1,25.92,NE,48,0.0,0.0,96,0.00,,,0.00,0,Wunderground v.1.15,2013-08-28 09:51:00,
2013-08-28 03:55:00,63.1,61.6,25.92,NE,48,0.0,0.0,95,0.00,,,0.00,0,Wunderground v.1.15,2013-08-28 09:55:00,
2013-08-28 04:00:00,63.1,61.6,25.92,NE,48,0.0,0.0,95,0.00,,,0.00,0,Wunderground v.1.15,2013-08-28 10:00:00,
2013-08-28 04:05:00,63.1,61.6,25.92,NE,48,0.0,0.0,95,0.00,,,0.00,0,Wunderground v.1.15,2013-08-28 10:05:00,
2013-08-28 04:11:00,63.1,61.6,25.92,NE,48,0.0,0.0,95,0.00,,,0.00,0,Wunderground v.1.15,2013-08-28 10:11:00,
2013-08-28 04:21:00,63.1,61.6,25.92,NE,48,0.0,0.0,95,0.00,,,0.00,0,Wunderground v.1.15,2013-08-28 10:21:00,
2013-08-28 04:31:00,63.0,61.2,25.92,NE,48,0.0,0.0,94,0.00,,,0.00,0,Wunderground v.1.15,2013-08-28 10:31:00,
2013-08-28 04:36:00,63.0,61.2,25.92,NE,48,0.0,0.0,94,0.00,,,0.00,0,Wunderground v.1.15,2013-08-28 10:36:00,
2013-08-28 04:46:00,62.8,60.7,25.92,NE,48,0.0,0.0,93,0.00,,,0.00,0,Wunderground v.1.15,2013-08-28 10:46:00,
2013-08-28 04:56:00,62.5,60.7,25.92,NE,48,0.0,0.0,94,0.00,,,0.00,0,Wunderground v.1.15,2013-08-28 10:56:00,
2013-08-28 05:06:00,62.3,60.6,25.92,NE,48,0.0,0.0,94,0.00,,,0.00,0,Wunderground v.1.15,2013-08-28 11:06:00,
2013-08-28 05:16:00,62.2,60.8,25.92,NE,48,0.0,0.0,95,0.00,,,0.00,0,Wunderground v.1.15,2013-08-28 11:16:00,
2013-08-28 05:26:00,62.0,60.6,25.92,NE,48,0.0,0.0,95,0.00,,,0.00,0,Wunderground v.1.15,2013-08-28 11:26:00,
2013-08-28 05:35:00,61.9,60.5,25.92,NE,48,0.0,0.0,95,0.00,,,0.00,0,Wunderground v.1.15,2013-08-28 11:35:00,
2013-08-28 05:41:00,61.7,60.3,25.92,NE,48,0.0,0.0,95,0.00,,,0.00,0,Wunderground v.1.15,2013-08-28 11:41:00,
2013-08-28 05:46:00,61.9,60.5,25.93,NE,48,0.0,0.0,95,0.00,,,0.00,5,Wunderground v.1.15,2013-08-28 11:46:00,
2013-08-28 05:56:00,61.7,59.4,25.93,NE,48,0.0,0.0,92,0.00,,,0.00,11,Wunderground v.1.15,2013-08-28 11:56:00,
2013-08-28 06:05:00,62.0,59.6,25.93,NE,48,0.0,0.0,92,0.00,,,0.00,19,Wunderground v.1.15,2013-08-28 12:05:00,
2013-08-28 06:11:00,62.0,59.6,25.93,NE,48,0.0,0.0,92,0.00,,,0.00,23,Wunderground v.1.15,2013-08-28 12:11:00,
2013-08-28 06:21:00,62.3,60.2,25.93,ENE,59,0.0,0.0,93,0.00,,,0.00,39,Wunderground v.1.15,2013-08-28 12:21:00,
2013-08-28 06:31:00,63.0,60.3,25.94,SSE,155,1.0,1.0,91,0.00,,,0.00,60,Wunderground v.1.15,2013-08-28 12:31:00,
2013-08-28 06:36:00,63.1,59.8,25.94,NE,54,1.0,2.0,89,0.00,,,0.00,69,Wunderground v.1.15,2013-08-28 12:36:00,
2013-08-28 06:46:00,63.4,59.8,25.95,NE,46,1.0,1.0,88,0.00,,,0.00,83,Wunderground v.1.15,2013-08-28 12:46:00,
2013-08-28 06:56:00,63.9,60.0,25.94,ESE,109,0.0,1.0,87,0.00,,,0.00,105,Wunderground v.1.15,2013-08-28 12:56:00,
2013-08-28 07:05:00,64.6,60.0,25.95,ESE,111,0.0,0.0,85,0.00,,,0.00,125,Wunderground v.1.15,2013-08-28 13:05:00,
2013-08-28 07:11:00,64.9,60.3,25.96,North,355,0.0,2.0,85,0.00,,,0.00,135,Wunderground v.1.15,2013-08-28 13:11:00,
2013-08-28 07:16:00,65.4,60.4,25.96,NW,323,1.0,1.0,84,0.00,,,0.00,144,Wunderground v.1.15,2013-08-28 13:16:00,
2013-08-28 07:26:00,66.2,60.9,25.97,East,82,1.0,2.0,83,0.00,,,0.00,158,Wunderground v.1.15,2013-08-28 13:26:00,
2013-08-28 07:31:00,66.3,60.3,25.97,East,82,0.0,0.0,81,0.00,,,0.00,153,Wunderground v.1.15,2013-08-28 13:31:00,
2013-08-28 07:41:00,66.7,60.3,25.97,ENE,58,1.0,2.0,80,0.00,,,0.00,171,Wunderground v.1.15,2013-08-28 13:41:00,
2013-08-28 07:51:00,67.2,60.1,25.97,ENE,78,1.0,2.0,78,0.00,,,0.00,144,Wunderground v.1.15,2013-08-28 13:51:00,
2013-08-28 08:01:00,67.5,60.0,25.97,ENE,69,1.0,1.0,77,0.00,,,0.00,200,Wunderground v.1.15,2013-08-28 14:01:00,
2013-08-28 08:06:00,67.7,60.6,25.97,ENE,69,0.0,1.0,78,0.00,,,0.00,234,Wunderground v.1.15,2013-08-28 14:06:00,
2013-08-28 08:16:00,68.2,60.7,25.98,North,5,1.0,2.0,77,0.00,,,0.00,258,Wunderground v.1.15,2013-08-28 14:16:00,
2013-08-28 08:21:00,68.2,61.1,25.98,NE,44,2.0,3.0,78,0.00,,,0.00,274,Wunderground v.1.15,2013-08-28 14:21:00,
2013-08-28 08:31:00,68.3,61.2,25.99,East,99,2.0,2.0,78,0.00,,,0.00,308,Wunderground v.1.15,2013-08-28 14:31:00,
2013-08-28 08:36:00,68.5,61.0,25.99,ESE,109,1.0,2.0,77,0.00,,,0.00,316,Wunderground v.1.15,2013-08-28 14:36:00,
2013-08-28 08:46:00,69.0,61.1,25.98,SE,142,1.0,1.0,76,0.00,,,0.00,345,Wunderground v.1.15,2013-08-28 14:46:00,
2013-08-28 08:56:00,69.7,60.3,25.98,SSE,168,2.0,2.0,72,0.00,,,0.00,366,Wunderground v.1.15,2013-08-28 14:56:00,
2013-08-28 09:01:00,70.2,60.7,25.98,SSE,167,2.0,2.0,72,0.00,,,0.00,373,Wunderground v.1.15,2013-08-28 15:01:00,
2013-08-28 09:11:00,71.0,60.3,25.98,ESE,111,1.0,1.0,69,0.00,,,0.00,341,Wunderground v.1.15,2013-08-28 15:11:00,
2013-08-28 09:21:00,71.7,60.6,25.98,SE,133,1.0,1.0,68,0.00,,,0.00,364,Wunderground v.1.15,2013-08-28 15:21:00,
2013-08-28 09:31:00,71.5,60.8,25.98,North,5,1.0,1.0,69,0.00,,,0.00,288,Wunderground v.1.15,2013-08-28 15:31:00,
2013-08-28 09:36:00,71.4,60.7,25.98,ESE,109,1.0,1.0,69,0.00,,,0.00,250,Wunderground v.1.15,2013-08-28 15:36:00,
2013-08-28 09:46:00,71.4,61.1,25.98,SE,144,2.0,5.0,70,0.00,,,0.00,221,Wunderground v.1.15,2013-08-28 15:46:00,
2013-08-28 09:51:00,71.4,61.1,25.98,SE,135,2.0,5.0,70,0.00,,,0.00,223,Wunderground v.1.15,2013-08-28 15:51:00,
2013-08-28 10:01:00,71.4,60.7,25.98,ESE,120,2.0,2.0,69,0.00,,,0.00,257,Wunderground v.1.15,2013-08-28 16:01:00,
2013-08-28 10:06:00,71.2,60.1,25.98,NE,46,1.0,2.0,68,0.00,,,0.00,246,Wunderground v.1.15,2013-08-28 16:06:00,
2013-08-28 10:16:00,71.2,60.5,25.97,NE,46,1.0,2.0,69,0.00,,,0.00,230,Wunderground v.1.15,2013-08-28 16:16:00,
2013-08-28 10:26:00,71.0,61.1,25.97,SSE,153,1.0,5.0,71,0.00,,,0.00,193,Wunderground v.1.15,2013-08-28 16:26:00,
2013-08-28 10:31:00,71.0,60.3,25.97,ENE,65,2.0,3.0,69,0.00,,,0.00,197,Wunderground v.1.15,2013-08-28 16:31:00,
2013-08-28 10:41:00,70.8,60.9,25.97,NNW,339,1.0,3.0,71,0.00,,,0.00,186,Wunderground v.1.15,2013-08-28 16:41:00,
2013-08-28 10:50:00,70.5,61.0,25.97,NNW,328,1.0,1.0,72,0.00,,,0.00,204,Wunderground v.1.15,2013-08-28 16:50:00,
2013-08-28 10:56:00,70.7,61.2,25.97,East,88,1.0,2.0,72,0.00,,,0.00,230,Wunderground v.1.15,2013-08-28 16:56:00,
2013-08-28 11:05:00,70.7,60.8,25.96,NNW,345,2.0,2.0,71,0.00,,,0.00,301,Wunderground v.1.15,2013-08-28 17:05:00,
2013-08-28 11:16:00,71.2,61.7,25.96,East,87,2.0,3.0,72,0.00,,,0.00,288,Wunderground v.1.15,2013-08-28 17:16:00,
2013-08-28 11:26:00,71.5,60.4,25.96,SE,136,2.0,4.0,68,0.00,,,0.00,410,Wunderground v.1.15,2013-08-28 17:26:00,
2013-08-28 11:36:00,72.7,60.7,25.95,ESE,104,2.0,4.0,66,0.00,,,0.00,598,Wunderground v.1.15,2013-08-28 17:36:00,
2013-08-28 11:46:00,73.9,61.4,25.95,ESE,121,2.0,5.0,65,0.00,,,0.00,501,Wunderground v.1.15,2013-08-28 17:46:00,
2013-08-28 11:56:00,74.1,61.6,25.94,ENE,65,2.0,5.0,65,0.00,,,0.00,508,Wunderground v.1.15,2013-08-28 17:56:00,
2013-08-28 12:06:00,73.9,61.4,25.94,SSE,151,2.0,2.0,65,0.00,,,0.00,446,Wunderground v.1.15,2013-08-28 18:06:00,
2013-08-28 12:11:00,74.1,61.6,25.94,SE,131,3.0,4.0,65,0.00,,,0.00,432,Wunderground v.1.15,2013-08-28 18:11:00,
2013-08-28 12:21:00,73.8,61.7,25.93,East,89,1.0,2.0,66,0.00,,,0.00,413,Wunderground v.1.15,2013-08-28 18:21:00,
2013-08-28 12:31:00,73.8,61.7,25.93,SSE,151,2.0,2.0,66,0.00,,,0.00,410,Wunderground v.1.15,2013-08-28 18:31:00,
2013-08-28 12:41:00,73.9,61.8,25.93,SSW,192,1.0,2.0,66,0.00,,,0.00,439,Wunderground v.1.15,2013-08-28 18:41:00,
2013-08-28 12:50:00,73.6,61.5,25.93,ENE,63,2.0,2.0,66,0.00,,,0.00,696,Wunderground v.1.15,2013-08-28 18:50:00,
2013-08-28 12:56:00,74.1,62.0,25.93,SE,146,3.0,5.0,66,0.00,,,0.00,791,Wunderground v.1.15,2013-08-28 18:56:00,
2013-08-28 13:01:00,73.9,61.4,25.94,East,100,3.0,5.0,65,0.00,,,0.00,513,Wunderground v.1.15,2013-08-28 19:01:00,
2013-08-28 13:11:00,72.9,61.7,25.93,North,360,4.0,4.0,68,0.00,,,0.00,373,Wunderground v.1.15,2013-08-28 19:11:00,
2013-08-28 13:21:00,72.6,61.4,25.92,NNW,333,4.0,4.0,68,0.00,,,0.00,251,Wunderground v.1.15,2013-08-28 19:21:00,
2013-08-28 13:31:00,72.4,62.1,25.92,ESE,119,4.0,5.0,70,0.00,,,0.00,592,Wunderground v.1.15,2013-08-28 19:31:00,
2013-08-28 13:40:00,73.1,62.7,25.92,NE,46,3.0,4.0,70,0.00,,,0.00,269,Wunderground v.1.15,2013-08-28 19:40:00,
2013-08-28 13:46:00,72.9,62.5,25.92,North,360,3.0,3.0,70,0.00,,,0.00,271,Wunderground v.1.15,2013-08-28 19:46:00,
2013-08-28 13:56:00,73.9,62.7,25.91,NNW,346,3.0,6.0,68,0.00,,,0.00,784,Wunderground v.1.15,2013-08-28 19:56:00,
2013-08-28 14:05:00,74.8,63.1,25.91,NNW,331,3.0,3.0,67,0.00,,,0.00,773,Wunderground v.1.15,2013-08-28 20:05:00,
2013-08-28 14:11:00,75.2,63.1,25.91,NNE,28,3.0,5.0,66,0.00,,,0.00,765,Wunderground v.1.15,2013-08-28 20:11:00,
2013-08-28 14:16:00,75.7,63.1,25.90,NNW,333,3.0,6.0,65,0.00,,,0.00,795,Wunderground v.1.15,2013-08-28 20:16:00,
2013-08-28 14:26:00,76.0,63.4,25.90,NNW,339,4.0,6.0,65,0.00,,,0.00,888,Wunderground v.1.15,2013-08-28 20:26:00,
2013-08-28 14:36:00,75.9,63.3,25.90,NE,40,3.0,4.0,65,0.00,,,0.00,313,Wunderground v.1.15,2013-08-28 20:36:00,
2013-08-28 14:46:00,74.6,63.8,25.89,West,277,4.0,4.0,69,0.00,,,0.00,854,Wunderground v.1.15,2013-08-28 20:46:00,
2013-08-28 14:51:00,75.2,63.9,25.89,WSW,248,3.0,4.0,68,0.00,,,0.00,267,Wunderground v.1.15,2013-08-28 20:51:00,
2013-08-28 15:01:00,73.6,63.6,25.89,NNW,345,4.0,4.0,71,0.00,,,0.00,202,Wunderground v.1.15,2013-08-28 21:01:00,
2013-08-28 15:06:00,73.4,63.4,25.89,WNW,300,3.0,6.0,71,0.00,,,0.00,202,Wunderground v.1.15,2013-08-28 21:06:00,
2013-08-28 15:16:00,73.6,63.6,25.89,NNW,340,3.0,9.0,71,0.00,,,0.00,260,Wunderground v.1.15,2013-08-28 21:16:00,
2013-08-28 15:26:00,72.9,62.9,25.89,ENE,71,5.0,5.0,71,0.00,,,0.00,334,Wunderground v.1.15,2013-08-28 21:26:00,
2013-08-28 15:31:00,72.6,63.4,25.89,North,360,4.0,5.0,73,0.00,,,0.00,181,Wunderground v.1.15,2013-08-28 21:31:00,
2013-08-28 15:41:00,72.2,63.4,25.89,North,360,3.0,7.0,74,0.00,,,0.00,385,Wunderground v.1.15,2013-08-28 21:41:00,
2013-08-28 15:50:00,72.2,63.4,25.89,NW,313,4.0,5.0,74,0.00,,,0.00,325,Wunderground v.1.15,2013-08-28 21:50:00,
2013-08-28 15:56:00,72.2,63.4,25.89,North,355,4.0,4.0,74,0.00,,,0.00,130,Wunderground v.1.15,2013-08-28 21:56:00,
2013-08-28 16:06:00,71.7,63.4,25.90,ENE,72,5.0,7.0,75,0.00,,,0.00,374,Wunderground v.1.15,2013-08-28 22:06:00,
2013-08-28 16:11:00,71.7,63.7,25.90,ENE,73,4.0,4.0,76,0.00,,,0.00,378,Wunderground v.1.15,2013-08-28 22:11:00,
2013-08-28 16:21:00,71.9,63.9,25.90,NNW,334,4.0,7.0,76,0.00,,,0.00,109,Wunderground v.1.15,2013-08-28 22:21:00,
2013-08-28 16:26:00,71.9,63.9,25.90,NE,34,3.0,5.0,76,0.00,,,0.00,141,Wunderground v.1.15,2013-08-28 22:26:00,
2013-08-28 16:36:00,71.9,63.5,25.90,NW,313,4.0,5.0,75,0.00,,,0.00,288,Wunderground v.1.15,2013-08-28 22:36:00,
2013-08-28 16:46:00,71.9,63.5,25.90,NNE,30,3.0,7.0,75,0.00,,,0.00,190,Wunderground v.1.15,2013-08-28 22:46:00,
2013-08-28 16:51:00,71.7,63.4,25.90,ESE,107,3.0,3.0,75,0.00,,,0.00,121,Wunderground v.1.15,2013-08-28 22:51:00,
2013-08-28 17:01:00,71.2,63.2,25.91,NE,46,3.0,4.0,76,0.00,,,0.00,121,Wunderground v.1.15,2013-08-28 23:01:00,
2013-08-28 17:10:00,71.0,63.4,25.91,NE,47,3.0,5.0,77,0.00,,,0.00,86,Wunderground v.1.15,2013-08-28 23:10:00,
2013-08-28 17:16:00,70.7,63.5,25.92,North,355,4.0,4.0,78,0.00,,,0.00,84,Wunderground v.1.15,2013-08-28 23:16:00,
2013-08-28 17:25:00,70.5,63.7,25.92,North,5,3.0,8.0,79,0.00,,,0.00,44,Wunderground v.1.15,2013-08-28 23:25:00,
2013-08-28 17:35:00,70.2,63.7,25.92,East,84,3.0,5.0,80,0.00,,,0.00,7,Wunderground v.1.15,2013-08-28 23:35:00,
2013-08-28 17:40:00,69.7,63.6,25.93,South,169,3.0,5.0,81,0.00,,,0.00,7,Wunderground v.1.15,2013-08-28 23:40:00,
2013-08-28 17:51:00,69.3,63.6,25.93,ESE,105,3.0,3.0,82,0.00,,,0.00,0,Wunderground v.1.15,2013-08-28 23:51:00,
2013-08-28 18:01:00,69.0,63.6,25.93,NW,313,2.0,2.0,83,0.00,,,0.00,0,Wunderground v.1.15,2013-08-29 00:01:00,
2013-08-28 18:10:00,69.0,63.3,25.93,NNW,347,2.0,4.0,82,0.00,,,0.00,0,Wunderground v.1.15,2013-08-29 00:10:00,
2013-08-28 18:21:00,69.3,63.6,25.94,North,5,0.0,1.0,82,0.00,,,0.00,0,Wunderground v.1.15,2013-08-29 00:21:00,
2013-08-28 18:31:00,69.2,63.5,25.94,WNW,301,2.0,2.0,82,0.00,,,0.00,0,Wunderground v.1.15,2013-08-29 00:31:00,
2013-08-28 18:41:00,68.8,63.4,25.94,East,98,2.0,3.0,83,0.00,,,0.00,0,Wunderground v.1.15,2013-08-29 00:41:00,
2013-08-28 18:46:00,68.8,63.4,25.94,East,93,1.0,6.0,83,0.00,,,0.00,0,Wunderground v.1.15,2013-08-29 00:46:00,
2013-08-28 18:56:00,68.8,63.8,25.94,South,169,2.0,6.0,84,0.00,,,0.00,0,Wunderground v.1.15,2013-08-29 00:56:00,
2013-08-28 19:05:00,68.8,63.8,25.95,ENE,76,2.0,2.0,84,0.00,,,0.00,0,Wunderground v.1.15,2013-08-29 01:05:00,
2013-08-28 19:11:00,68.7,63.7,25.95,SE,125,2.0,2.0,84,0.00,,,0.00,0,Wunderground v.1.15,2013-08-29 01:11:00,
2013-08-28 19:20:00,68.5,63.5,25.95,East,86,1.0,1.0,84,0.00,,,0.00,0,Wunderground v.1.15,2013-08-29 01:20:00,
2013-08-28 19:26:00,68.5,63.5,25.95,North,355,1.0,1.0,84,0.00,,,0.00,0,Wunderground v.1.15,2013-08-29 01:26:00,
2013-08-28 19:36:00,68.3,63.3,25.96,NNE,28,1.0,1.0,84,0.00,,,0.00,0,Wunderground v.1.15,2013-08-29 01:36:00,
2013-08-28 19:41:00,68.3,63.3,25.96,North,360,2.0,2.0,84,0.00,,,0.00,0,Wunderground v.1.15,2013-08-29 01:41:00,
2013-08-28 19:51:00,68.0,62.6,25.96,East,101,1.0,4.0,83,0.00,,,0.00,0,Wunderground v.1.15,2013-08-29 01:51:00,
2013-08-28 19:56:00,68.0,62.6,25.96,East,100,1.0,1.0,83,0.00,,,0.00,0,Wunderground v.1.15,2013-08-29 01:56:00,
2013-08-28 20:06:00,68.0,63.0,25.97,East,88,0.0,1.0,84,0.00,,,0.00,0,Wunderground v.1.15,2013-08-29 02:06:00,
2013-08-28 20:16:00,68.0,62.6,25.97,NW,307,0.0,1.0,83,0.00,,,0.00,0,Wunderground v.1.15,2013-08-29 02:16:00,
2013-08-28 20:25:00,67.8,62.1,25.97,SSE,166,0.0,0.0,82,0.00,,,0.00,0,Wunderground v.1.15,2013-08-29 02:25:00,
2013-08-28 20:36:00,67.8,62.1,25.97,SSE,166,0.0,0.0,82,0.00,,,0.00,0,Wunderground v.1.15,2013-08-29 02:36:00,
2013-08-28 20:46:00,67.7,62.3,25.98,SSE,166,0.0,0.0,83,0.00,,,0.00,0,Wunderground v.1.15,2013-08-29 02:46:00,
2013-08-28 20:56:00,67.3,62.3,25.97,NW,308,1.0,1.0,84,0.00,,,0.00,0,Wunderground v.1.15,2013-08-29 02:56:00,
2013-08-28 21:05:00,66.8,61.8,25.98,NW,316,1.0,1.0,84,0.00,,,0.00,0,Wunderground v.1.15,2013-08-29 03:05:00,
2013-08-28 21:10:00,66.7,61.7,25.98,East,92,1.0,1.0,84,0.00,,,0.00,0,Wunderground v.1.15,2013-08-29 03:10:00,
2013-08-28 21:21:00,66.3,61.3,25.98,SE,126,2.0,2.0,84,0.00,,,0.00,0,Wunderground v.1.15,2013-08-29 03:21:00,
2013-08-28 21:31:00,66.2,61.2,25.98,East,100,2.0,2.0,84,0.00,,,0.00,0,Wunderground v.1.15,2013-08-29 03:31:00,
2013-08-28 21:36:00,66.2,61.2,25.98,ENE,67,2.0,2.0,84,0.00,,,0.00,0,Wunderground v.1.15,2013-08-29 03:36:00,
2013-08-28 21:46:00,66.2,61.2,25.98,ESE,119,3.0,4.0,84,0.00,,,0.00,0,Wunderground v.1.15,2013-08-29 03:46:00,
2013-08-28 21:51:00,66.3,61.0,25.98,SE,141,2.0,2.0,83,0.00,,,0.00,0,Wunderground v.1.15,2013-08-29 03:51:00,
2013-08-28 22:01:00,66.3,61.0,25.98,East,80,2.0,2.0,83,0.00,,,0.00,0,Wunderground v.1.15,2013-08-29 04:01:00,
2013-08-28 22:06:00,66.5,61.2,25.98,SE,126,2.0,2.0,83,0.00,,,0.00,0,Wunderground v.1.15,2013-08-29 04:06:00,
2013-08-28 22:16:00,66.7,61.0,25.98,SSE,167,2.0,4.0,82,0.00,,,0.00,0,Wunderground v.1.15,2013-08-29 04:16:00,
2013-08-28 22:20:00,66.7,61.0,25.98,ENE,78,3.0,3.0,82,0.00,,,0.00,0,Wunderground v.1.15,2013-08-29 04:20:00,
2013-08-28 22:26:00,66.7,61.4,25.98,ESE,105,3.0,4.0,83,0.00,,,0.00,0,Wunderground v.1.15,2013-08-29 04:26:00,
2013-08-28 22:36:00,66.3,61.0,25.98,North,360,2.0,3.0,83,0.00,,,0.00,0,Wunderground v.1.15,2013-08-29 04:36:00,
2013-08-28 22:41:00,66.2,61.2,25.98,SSE,164,3.0,3.0,84,0.00,,,0.00,0,Wunderground v.1.15,2013-08-29 04:41:00,
2013-08-28 22:51:00,66.0,61.0,25.98,WNW,302,3.0,3.0,84,0.00,,,0.00,0,Wunderground v.1.15,2013-08-29 04:51:00,
2013-08-28 23:01:00,66.0,61.0,25.97,SSE,149,1.0,1.0,84,0.00,,,0.00,0,Wunderground v.1.15,2013-08-29 05:01:00,
2013-08-28 23:06:00,66.2,61.2,25.97,NNE,20,2.0,4.0,84,0.00,,,0.00,0,Wunderground v.1.15,2013-08-29 05:06:00,
2013-08-28 23:11:00,66.0,61.0,25.97,ESE,106,3.0,5.0,84,0.00,,,0.00,0,Wunderground v.1.15,2013-08-29 05:11:00,
2013-08-28 23:21:00,66.0,61.4,25.97,NE,45,2.0,2.0,85,0.00,,,0.00,0,Wunderground v.1.15,2013-08-29 05:21:00,
2013-08-28 23:31:00,65.9,61.3,25.97,ESE,122,3.0,3.0,85,0.00,,,0.00,0,Wunderground v.1.15,2013-08-29 05:31:00,
2013-08-28 23:40:00,65.7,61.1,25.97,SSE,155,3.0,3.0,85,0.00,,,0.00,0,Wunderground v.1.15,2013-08-29 05:40:00,
2013-08-28 23:46:00,65.7,61.4,25.97,ENE,72,2.0,2.0,86,0.00,,,0.00,0,Wunderground v.1.15,2013-08-29 05:46:00,
2013-08-28 23:56:00,65.7,61.4,25.97,ESE,118,1.0,2.0,86,0.00,,,0.00,0,Wunderground v.1.15,2013-08-29 05:56:00,